Vorticity
nan nan nan nan nan nan nan nan nan nan nan nan nan nan nan nan nan nan nan nan nan nan nan nan nan nan nan nan nan nan nan nan nan nan nan nan nan nan nan nan nan nan nan nan nan nan nan
nan 6 6 5 5 7 7 6 5 6 5 6 6 7 6 7 7 7 7 7 6 6 6 6 8 15 12 1 10 3 5 12 9 6 7 7 7 8 9 8 8 3 5 9 7 9 nan
nan 5 5 5 7 5 5 5 6 6 6 6 6 6 6 6 7 6 7 6 6 7 6 7 11 15 8 8 2 3 9 10 7 5 6 6 8 6 6 10 9 6 8 11 10 11 nan
nan 6 6 7 6 6 6 5 5 4 5 6 5 6 7 7 6 6 7 7 7 7 8 12 13 12 4 11 7 8 11 10 11 8 8 6 7 7 6 4 6 11 11 11 9 9 nan
nan 6 7 7 7 7 5 5 4 4 6 6 6 6 6 6 6 7 6 7 11 19 18 14 9 8 6 9 13 14 11 5 7 11 13 13 10 8 6 9 6 12 9 2 12 11 nan
nan 7 5 8 9 7 4 5 5 5 5 5 6 6 7 6 6 6 12 20 21 19 18 8 4 6 11 9 6 10 13 13 5 6 10 14 10 6 3 11 8 4 3 4 2 -0 nan
nan 6 7 7 7 7 7 7 6 6 6 5 6 6 6 6 7 8 15 19 17 9 11 5 -1 -4 1 5 4 2 9 13 13 10 8 6 6 8 4 -0 6 2 1 2 3 5 nan
nan 7 6 6 6 7 8 7 7 6 6 6 6 6 6 6 6 15 14 6 7 7 7 11 5 9 6 1 1 3 11 7 9 5 5 9 9 8 11 5 4 4 5 5 7 13 nan
nan 6 7 8 9 7 6 7 7 7 7 6 5 5 6 6 15 17 10 3 5 14 15 15 15 12 22 15 7 10 -2 8 9 5 9 5 12 10 6 3 7 5 9 7 5 10 nan
nan 9 8 8 9 9 9 9 8 8 7 7 5 4 3 15 16 9 5 5 11 14 10 13 14 14 14 10 16 26 11 7 4 8 9 13 11 6 7 13 13 8 12 11 11 10 nan
nan 8 8 8 8 8 9 10 9 8 8 8 8 6 9 13 7 6 5 8 14 12 8 15 13 10 12 8 4 11 19 19 13 9 10 4 1 14 17 13 8 12 12 17 19 11 nan
nan 8 9 9 9 9 9 8 8 9 9 9 8 6 9 8 11 5 6 13 12 10 10 9 14 8 5 5 5 7 9 10 17 14 7 8 7 4 4 4 1 12 13 13 13 12 nan
nan 9 9 9 10 8 9 8 9 8 9 9 9 10 7 6 5 7 13 14 11 5 8 7 3 -1 9 14 11 10 5 5 9 9 9 18 18 17 9 3 7 7 8 11 10 6 nan
nan 10 9 9 9 9 9 9 9 9 9 9 11 11 7 6 4 9 14 13 7 8 2 2 4 10 14 11 16 14 8 7 6 6 9 12 12 10 18 24 18 10 4 5 8 9 nan
nan 11 11 9 8 9 10 11 12 10 8 13 13 10 11 12 10 7 11 9 8 6 4 8 11 15 11 10 8 10 13 20 13 7 5 6 3 -1 12 17 15 20 9 6 10 11 nan
nan 10 11 10 10 9 8 9 10 12 17 13 8 8 11 13 10 6 11 7 4 -2 3 13 16 8 6 3 9 9 9 10 12 14 10 8 10 10 8 7 12 17 15 8 13 13 nan
nan 9 9 9 9 9 9 8 8 8 15 11 5 9 13 12 6 10 12 10 7 -1 6 8 6 7 5 10 10 5 7 6 9 11 12 13 9 3 9 12 8 6 10 14 13 13 nan
nan 10 9 9 10 10 8 6 7 9 11 9 7 8 10 13 5 6 13 10 8 9 12 12 9 8 6 8 8 13 13 4 8 9 9 9 10 11 9 9 10 12 12 11 9 6 nan
nan 8 8 9 10 10 10 8 7 9 9 7 8 8 11 10 10 7 9 7 3 12 5 8 10 7 3 4 10 9 10 11 11 7 10 9 6 9 9 12 10 9 10 8 9 8 nan
nan 8 9 9 9 9 10 9 8 7 6 8 10 8 10 9 12 7 4 12 7 7 4 5 6 3 5 10 6 6 9 7 12 13 9 8 11 10 4 1 3 5 6 9 5 4 nan
nan 8 9 10 10 9 9 10 9 9 6 6 11 11 9 9 13 13 8 11 8 11 15 7 14 11 5 6 8 7 9 12 8 12 12 9 11 9 8 5 8 5 6 12 6 1 nan
nan 8 9 11 11 9 8 8 8 9 7 7 11 9 10 7 11 15 18 16 14 7 10 11 4 7 7 10 11 10 11 10 8 11 9 10 12 11 14 11 11 11 10 10 13 15 nan
nan 9 12 13 12 11 9 7 8 6 4 6 8 11 11 9 9 12 9 1 4 15 13 5 5 5 13 23 16 15 9 7 7 4 11 11 9 9 14 13 8 16 20 12 9 12 nan
nan 14 12 12 11 10 8 9 9 8 2 6 9 10 9 11 10 3 3 5 7 8 7 11 12 13 18 13 12 12 15 11 7 7 8 5 9 7 8 15 12 5 12 16 12 6 nan
nan 10 11 10 10 10 9 9 9 10 1 4 10 9 9 12 10 6 8 10 9 11 17 15 13 20 14 6 8 9 10 13 15 15 5 4 6 8 12 9 5 9 16 12 11 6 nan
nan 8 9 8 8 10 10 10 10 10 6 7 10 9 8 11 13 9 11 14 13 10 20 26 25 17 5 7 12 13 9 10 10 18 18 7 6 7 8 8 9 12 10 7 6 9 nan
nan 9 9 8 10 11 11 12 10 12 13 9 12 9 7 9 10 12 11 10 15 16 15 20 21 10 8 9 11 9 12 10 10 11 14 13 16 11 6 8 6 9 7 13 11 8 nan
nan 8 10 12 11 13 15 13 12 16 14 6 12 12 6 8 13 16 10 10 12 5 9 14 9 9 8 13 10 12 12 11 10 12 12 8 9 11 13 11 9 5 9 15 9 11 nan
nan nan nan nan nan nan nan nan nan nan nan nan nan nan nan nan nan nan nan nan nan nan nan nan nan nan nan nan nan nan nan nan nan nan nan nan nan nan nan nan nan nan nan nan nan nan nan
CAPE
0 0 0 0 0 0 0 0 0 0 0 0 0 0 0 0 0 0 0 0 0 0 0 0 0 0 0 0 0 0 0 0 0 0 0 0 0 0 0 0 0 0 0 0 0 0 0
0 0 0 0 0 0 0 0 0 0 0 0 0 0 0 0 0 0 0 0 0 0 0 0 0 0 0 0 0 0 0 0 0 0 0 0 0 0 0 0 0 0 0 0 0 0 0
0 0 0 0 0 0 0 0 0 0 0 0 0 0 0 0 0 0 0 0 0 0 0 0 0 0 0 0 0 0 0 0 0 0 0 0 0 0 0 0 0 0 0 0 0 0 0
1 1 0 0 0 0 0 0 0 0 0 0 0 0 0 0 0 0 0 0 0 0 0 0 0 0 0 0 0 0 0 0 0 0 0 0 0 0 0 0 0 0 0 0 0 0 0
1 29 2 0 0 0 0 0 0 0 0 0 0 0 0 0 0 0 0 0 0 0 0 0 0 0 0 0 0 0 0 0 0 0 0 0 0 0 0 0 0 0 0 0 0 0 0
0 0 18 0 8 0 0 0 0 0 0 0 0 0 0 0 0 0 0 0 0 0 0 0 0 0 0 0 0 0 0 0 0 0 0 0 0 0 0 0 0 0 0 0 0 0 0
5 11 23 17 26 30 14 0 0 0 0 0 0 0 0 0 0 0 0 0 0 0 0 0 0 0 0 0 0 0 0 0 0 0 0 0 0 0 0 0 0 0 0 0 0 0 0
73 72 59 62 45 50 39 38 12 4 1 0 0 0 0 0 0 0 0 0 0 0 0 0 0 0 0 0 0 0 0 0 0 0 0 0 0 0 0 0 0 0 0 0 0 0 0
56 63 91 82 68 68 63 58 41 29 13 8 0 0 0 0 0 0 0 0 0 0 0 0 0 0 0 0 0 0 0 0 0 0 0 0 0 0 0 0 0 0 0 0 0 0 0
74 54 57 73 62 55 62 58 65 63 40 15 0 0 0 0 0 0 0 0 0 0 0 0 0 0 0 0 0 0 0 0 0 0 0 0 0 0 0 0 0 0 0 0 0 0 0
47 36 51 53 60 49 46 46 48 52 52 41 8 0 0 0 0 0 0 0 0 0 0 0 0 0 0 0 0 0 0 0 0 0 0 0 0 0 0 0 0 0 0 0 0 0 0
61 55 59 50 38 22 22 24 36 38 40 35 22 5 0 0 0 0 0 0 0 0 0 0 0 0 0 0 0 0 0 0 0 0 0 0 0 0 0 0 0 0 0 0 0 0 0
110 98 84 89 62 38 41 45 35 30 33 29 16 18 0 0 0 0 0 0 0 0 0 0 0 0 0 0 0 0 0 0 0 0 0 0 0 0 0 0 0 0 0 0 0 0 0
99 97 102 84 90 92 70 62 62 44 30 32 21 2 0 0 0 0 0 49 0 0 0 0 0 0 0 0 0 0 0 0 0 21 0 0 0 0 0 0 0 0 0 0 0 0 0
92 89 81 71 66 53 62 72 65 59 48 28 31 0 0 0 0 0 10 6 0 0 0 0 0 0 0 0 0 0 0 39 77 30 17 0 0 0 0 0 0 0 0 0 0 0 0
133 115 93 83 74 64 36 17 26 43 61 45 0 0 0 0 0 6 14 0 0 0 0 0 0 0 0 0 0 0 0 1 47 69 16 19 0 0 0 0 0 0 0 0 0 1 0
125 117 93 74 68 67 61 46 25 31 40 46 10 27 2 0 43 33 8 0 0 0 0 0 0 0 0 0 0 0 0 0 4 20 47 39 13 0 0 0 0 4 0 8 0 3 0
86 72 83 87 116 104 121 78 33 54 27 23 24 3 0 2 47 0 0 0 0 0 0 0 0 0 0 0 0 0 0 0 0 0 0 0 39 0 0 0 14 48 22 5 0 10 22
116 104 123 122 134 113 100 107 61 69 69 2 20 10 0 44 37 5 12 12 8 0 0 0 0 0 0 0 0 1 1 1 0 7 28 0 1 0 0 1 1 2 3 14 7 15 3
87 101 109 83 127 111 108 115 96 58 83 11 4 3 0 14 1 29 7 4 7 0 0 2 1 0 0 0 0 0 0 4 47 4 20 1 0 0 0 0 0 0 0 0 18 0 3
72 89 140 145 135 114 112 134 150 141 116 0 0 0 0 0 2 25 14 6 1 2 3 0 7 0 0 0 0 1 0 1 15 18 0 0 0 0 0 0 0 0 0 0 0 0 1
22 31 71 71 109 101 109 117 101 141 106 0 0 0 0 1 1 33 47 41 33 15 2 0 15 0 0 3 0 0 10 0 5 2 0 0 0 0 0 0 0 0 0 0 0 0 0
7 30 43 58 82 76 93 106 115 141 36 0 0 0 1 0 0 0 0 0 23 12 13 19 11 26 6 1 3 0 9 8 9 0 0 0 1 5 9 0 0 0 0 0 0 0 0
51 63 66 45 49 75 100 116 128 123 21 0 0 0 1 0 0 0 0 0 0 0 10 0 31 32 0 0 0 0 0 1 0 0 0 1 0 9 65 0 0 0 0 0 0 0 0
33 34 51 58 46 55 82 117 132 125 90 0 2 13 14 1 0 0 0 0 0 0 2 0 0 12 1 0 1 2 0 0 0 0 0 0 0 0 56 22 0 0 0 0 0 0 0
20 18 21 25 50 82 77 72 66 66 86 2 11 6 22 7 0 0 1 0 0 0 0 0 0 3 4 1 1 0 0 0 0 0 0 0 0 0 2 4 0 0 0 0 0 0 0
42 29 30 35 69 52 54 73 77 84 102 1 4 7 8 4 3 0 0 0 21 124 1 4 8 23 1 0 0 0 0 0 0 0 0 0 0 0 0 2 0 0 2 7 0 0 0
37 24 26 55 71 69 94 98 90 88 104 0 0 3 6 1 0 1 11 4 27 12 6 2 2 3 0 0 0 0 0 0 0 0 0 0 0 9 56 30 0 8 0 4 0 0 0
42 35 62 61 58 52 76 88 72 101 109 0 5 0 17 2 3 0 1 22 0 1 1 0 1 0 0 0 0 0 0 0 0 0 0 0 0 0 0 0 0 0 9 0 21 35 14